Quincy Regional Baldwin Field Quincy US
ICAO: KUIN
IATA: UIN
Category: Medium
Scheduled Services: Yes

Elevation: 768 ft
TransAlt. 18000 ft.

Airport Communications:
ASOS:118.325
KANSAS CITY CNTR:135.525
ST LOUIS RDO:122.5
CTAF/UNICOM:123

KUIN Zoom In..

Runways:

(A) RW 04 length 7098 ft width 150 ft
ILS 110.10 / hdg 38

(B) RW 13 length 5397 ft width 150 ft
---- / hdg 133

(C) RW 18 length 5400 ft width 150 ft
---- / hdg 177

(D) RW 22 length 7098 ft width 150 ft
---- / hdg 218

(E) RW 31 length 5397 ft width 150 ft
---- / hdg 313

(F) RW 36 length 5400 ft width 150 ft
---- / hdg 357

Location; KUIN
Day. 04 / Time. 12.54 Zulu
* Altimeter: 30.00
* Temperature: -02° c. -28.4°f.
* Wind from: 230° Speed 07 kn.
Dewpoint: -03° c.
Visibility: 8 Statute Miles.
Clouds: Clear (automated report).

KUIN 041254Z AUTO 23007KT 8SM CLR M02/M03 A3000 RMK AO2 SLP164 T10171033

Going to: --> -->


Wind From 230°
Speed 07 kn.

 
 
jpsmedia worldairports.se 2020   terms of use